RH
29 12 8 8 6 7 12 16 17 22 45 72 88 92 92 96 101 103 102 102 101 100 100 100 97 92 83 70 58 49 44 45 44 37 28 20 18 17 15 14 13 12 12 12 11 10 10 10 9 9 8 9 9 9 13 17 19 26 38 56 70 71 71 72 69 63 60 62 61 53 53 55 42 29
53 30 13 8 8 7 6 11 16 16 19 37 66 85 89 91 96 101 103 102 101 101 101 102 103 99 92 82 70 59 50 49 51 50 42 31 23 20 19 17 16 15 14 13 13 12 11 11 10 10 9 9 9 8 9 11 16 18 20 39 67 77 80 84 80 79 75 67 65 57 48 52 54 45
66 55 34 15 7 8 7 6 10 16 17 17 32 59 80 87 88 94 101 101 100 102 102 101 102 103 100 92 83 73 63 58 57 57 56 47 34 25 23 21 18 17 17 15 15 14 13 12 11 11 10 10 9 9 9 8 11 15 14 22 41 56 72 86 86 88 88 80 74 67 59 62 69 66
67 67 59 39 18 8 7 7 6 9 16 18 17 27 52 74 82 84 91 97 99 102 103 101 100 101 102 101 97 89 80 75 69 62 60 60 51 36 26 24 23 20 19 18 17 16 16 15 13 12 12 11 11 10 10 10 9 11 13 13 19 29 46 69 85 92 92 86 79 74 72 75 79 79
67 67 69 61 40 19 8 7 8 7 9 16 18 16 23 46 69 78 80 85 93 101 104 102 101 101 100 100 102 101 96 91 84 73 65 63 62 53 38 29 25 24 22 20 19 18 17 17 16 15 14 12 12 11 10 11 10 10 11 11 12 15 21 41 66 84 92 89 81 79 81 82 83 82
70 69 68 67 57 39 22 10 6 7 7 9 15 18 16 20 40 62 74 76 80 93 103 103 102 101 100 98 97 100 103 100 96 88 78 69 67 64 55 42 31 27 26 24 22 20 19 19 18 18 17 15 14 14 12 12 11 11 11 10 12 10 11 25 40 54 76 92 93 93 96 95 89 80
67 70 69 68 64 58 49 32 15 6 7 8 9 14 18 16 18 33 55 70 73 79 92 102 103 101 101 100 97 95 97 101 103 100 91 82 77 74 71 60 44 33 29 27 26 24 21 21 20 19 20 19 17 16 15 14 13 12 12 11 12 10 12 26 37 40 57 83 92 94 102 104 91 71
60 65 68 68 67 66 66 56 38 18 8 6 7 9 13 17 17 16 26 47 64 71 78 89 99 102 102 102 101 97 93 93 99 103 101 95 89 86 83 76 62 47 36 31 29 28 25 23 22 21 20 21 21 19 18 17 16 15 14 13 13 13 10 18 34 41 50 67 72 71 80 93 86 64
58 59 61 64 66 67 68 66 57 42 25 12 7 7 8 11 16 17 15 19 36 55 67 76 86 94 99 101 101 100 97 91 91 96 101 102 100 96 91 84 76 66 52 40 32 31 29 27 25 24 22 21 21 22 21 20 19 17 17 16 14 15 13 12 20 27 31 38 39 33 34 48 65 67
59 59 57 58 60 61 64 65 63 58 48 33 18 8 6 7 10 14 17 15 15 26 43 61 75 83 88 94 99 102 101 97 93 90 92 97 101 102 99 93 87 82 74 59 44 35 32 31 29 27 26 24 23 23 22 22 22 20 20 20 17 17 16 13 14 15 15 17 18 15 13 22 43 57
60 59 57 55 54 55 57 59 61 62 60 53 40 24 12 7 6 8 12 16 15 13 18 32 53 71 81 86 92 100 104 103 99 93 89 90 93 97 101 101 98 94 90 82 67 51 39 34 33 31 29 28 26 25 24 23 24 23 21 22 21 20 19 17 16 15 14 14 13 13 13 20 32 35
59 57 57 55 53 53 53 53 55 58 60 58 54 44 29 15 8 6 7 10 14 15 14 13 22 42 65 79 86 94 101 104 103 99 94 91 90 90 92 97 100 101 100 97 91 78 60 45 38 35 33 32 30 29 28 26 25 25 24 23 23 23 22 21 20 18 17 16 15 15 13 17 22 19
60 58 56 55 54 53 53 53 52 52 55 56 54 51 45 35 22 11 6 6 8 11 14 14 12 16 31 53 73 87 95 98 98 99 98 94 91 88 86 86 91 97 100 101 101 99 88 71 56 45 38 35 35 33 31 30 29 28 27 26 25 25 25 24 24 22 21 18 17 16 15 15 16 16
65 64 61 58 56 55 54 54 53 50 49 52 53 51 50 47 40 29 17 8 6 6 8 11 13 13 13 21 39 62 81 90 92 93 95 93 91 92 89 84 82 86 91 95 98 101 102 96 84 69 55 44 40 37 35 34 33 31 30 29 28 27 26 26 26 25 25 23 21 20 19 17 16 17
67 69 67 65 62 61 60 58 56 53 49 48 50 53 52 48 45 42 34 22 12 7 5 6 9 12 12 11 14 25 47 69 82 90 92 89 89 92 93 88 83 81 82 85 88 91 97 101 99 92 80 67 56 48 42 39 37 35 34 33 32 30 29 28 28 28 27 27 26 24 22 22 20 18
60 62 62 61 60 59 59 58 57 56 53 50 50 52 53 51 47 44 40 35 27 18 10 6 5 6 9 11 11 11 16 31 51 71 85 90 89 89 90 90 88 86 83 80 80 81 85 91 95 95 94 88 80 71 61 51 45 41 39 38 36 34 33 31 30 30 30 30 30 29 27 26 25 23
51 52 51 51 51 51 51 51 51 52 52 52 53 53 53 52 50 46 41 37 34 30 24 18 12 7 5 6 9 11 10 11 18 32 52 72 85 90 90 88 87 90 90 84 75 72 74 80 83 85 88 91 92 90 85 76 66 56 48 43 41 39 37 35 34 33 32 32 32 32 32 31 29 28
44 45 45 44 44 44 46 47 50 51 51 51 52 53 54 52 51 50 47 42 37 34 34 33 26 17 10 6 5 6 9 10 10 11 17 32 52 72 86 90 88 89 93 90 79 69 69 74 76 75 76 81 86 89 92 92 89 82 71 59 51 45 41 40 38 36 36 36 36 35 35 35 34 33
37 37 37 37 37 36 38 43 48 52 54 55 56 55 56 56 55 54 51 48 46 41 37 34 30 24 20 15 9 6 5 6 8 9 9 10 17 33 55 73 83 87 91 92 86 76 68 70 75 74 72 74 78 81 84 89 92 93 91 84 74 63 53 46 43 41 40 38 38 39 38 38 37 37
27 28 28 28 30 31 34 38 44 50 53 57 61 63 63 63 61 59 55 53 53 52 47 41 35 32 29 24 18 13 10 7 5 6 8 9 9 10 17 32 52 69 81 89 90 84 75 71 74 75 73 74 75 74 76 80 83 86 89 91 91 86 77 65 55 49 46 43 42 42 41 41 41 40
22 23 25 26 29 33 40 46 52 57 59 60 64 68 71 72 70 66 63 62 61 60 59 55 49 44 41 37 31 25 21 17 14 9 6 6 7 8 8 9 17 30 46 62 75 82 82 79 78 76 73 74 74 73 73 74 76 79 81 82 86 89 90 86 77 66 57 51 48 46 44 43 43 43
33 35 36 38 40 45 53 60 65 69 71 71 73 75 78 81 79 74 71 72 73 71 71 69 64 58 54 50 46 40 34 31 25 19 17 14 9 6 7 7 8 9 14 23 38 53 66 77 82 82 78 75 72 71 72 72 72 73 75 76 77 79 82 86 89 86 78 68 59 54 51 49 48 47
52 55 56 57 57 58 63 68 71 74 76 76 78 81 85 85 80 75 77 79 79 77 78 78 76 72 67 63 59 54 49 43 37 33 34 31 21 14 10 8 7 8 7 8 11 18 30 44 59 71 77 78 75 72 72 72 72 71 71 72 71 72 73 75 79 84 87 85 78 69 62 57 54 53
65 67 71 72 70 66 67 69 72 74 76 76 76 78 82 82 74 72 79 84 82 79 79 79 81 82 79 74 72 69 65 58 51 48 48 42 33 26 21 17 13 10 9 9 8 8 10 14 22 35 49 60 68 72 75 76 75 74 72 70 68 67 67 68 70 73 77 83 86 85 79 72 65 60
73 74 76 76 74 70 68 67 69 72 75 78 79 77 77 77 73 72 79 83 82 83 85 84 84 87 87 85 83 81 79 74 67 63 62 58 49 39 31 27 24 21 20 18 13 9 9 9 8 11 17 26 36 47 57 66 72 75 74 72 69 66 64 63 63 65 67 71 76 82 85 85 82 74
78 80 82 80 76 71 68 67 67 70 73 78 81 79 76 75 73 72 75 78 80 83 87 87 88 91 93 94 94 92 92 91 85 78 75 74 69 58 47 38 31 31 42 45 33 21 18 17 16 13 10 10 13 17 24 34 45 56 64 68 70 68 64 62 59 59 61 63 66 70 75 80 84 86
82 83 86 88 82 74 69 69 70 70 72 76 79 79 79 77 75 73 74 75 76 79 82 85 90 95 98 100 103 102 102 102 100 95 90 84 79 72 66 59 47 42 54 62 54 44 38 34 32 28 21 15 13 10 10 13 17 25 34 44 54 60 63 63 60 57 56 58 60 63 65 68 72 77
85 86 87 90 90 82 75 75 75 73 71 72 75 77 79 80 79 80 81 82 81 82 85 87 90 96 101 105 106 104 102 102 103 101 96 89 83 80 79 78 71 62 61 62 59 62 65 63 61 57 47 36 28 22 18 16 14 14 14 17 25 35 44 52 57 58 57 56 57 59 60 62 63 64
75 86 89 91 93 91 85 81 79 76 71 69 70 73 76 79 79 80 84 88 90 93 97 98 96 96 100 104 105 102 101 101 100 96 93 92 90 88 85 85 85 82 76 69 66 74 86 91 92 90 82 72 63 56 48 39 30 24 18 14 13 13 18 27 35 43 49 52 54 57 58 58 58 59
56 74 87 92 93 93 89 83 81 81 79 76 71 68 70 73 73 74 77 82 87 95 101 102 101 101 103 104 105 103 101 101 100 97 96 98 99 97 92 88 89 90 88 81 77 83 92 97 99 101 100 96 93 89 83 73 60 49 38 28 22 16 12 10 13 18 26 34 40 46 51 53 54 55
42 56 75 89 92 91 87 83 82 84 86 85 79 73 72 73 72 70 71 76 85 95 100 101 102 103 100 98 99 101 101 101 101 99 99 101 104 105 102 95 91 92 92 88 85 90 96 98 98 100 101 101 100 100 98 92 83 78 69 53 39 31 24 16 11 9 8 11 17 23 29 37 43 46
37 43 59 78 89 92 90 86 85 85 85 83 80 76 76 77 76 71 66 68 79 91 98 104 103 93 81 78 83 90 96 99 102 102 99 100 105 107 104 98 93 93 94 92 91 97 100 98 96 97 98 100 100 100 100 98 93 93 93 80 58 44 39 31 22 16 12 8 7 9 10 14 21 27
36 39 48 62 78 89 93 91 90 88 85 80 75 73 75 79 79 74 65 62 70 83 95 102 94 76 67 71 79 87 93 97 101 103 100 99 103 103 97 94 92 90 92 96 99 103 102 94 88 88 91 97 101 99 98 100 99 98 101 96 75 55 52 52 41 29 23 16 10 9 8 6 7 10
35 40 45 52 64 78 88 92 91 90 88 82 73 67 70 77 80 77 69 63 67 79 92 92 77 63 66 78 85 93 101 101 99 103 104 101 100 96 91 90 93 91 89 93 97 100 99 92 85 81 82 89 97 98 95 98 101 99 100 102 89 68 64 76 76 63 52 40 28 19 15 10 8 7
33 39 45 50 56 65 77 87 90 91 91 87 76 66 65 73 79 77 69 60 61 74 85 80 63 56 65 79 88 98 108 107 101 104 107 102 95 94 92 92 95 94 92 92 93 95 95 93 89 87 82 79 84 90 92 95 100 101 100 101 97 83 75 86 98 96 88 80 66 51 39 28 18 12
31 37 45 52 55 58 67 79 87 90 91 88 81 69 65 73 81 78 66 54 53 67 78 70 55 50 59 76 91 102 109 108 103 106 108 99 91 94 97 97 99 99 97 96 96 96 97 97 97 98 94 85 78 79 86 94 100 101 101 100 100 96 87 87 96 101 100 100 95 86 77 65 46 28
31 36 46 55 57 56 60 70 80 86 87 86 83 72 65 72 81 76 61 48 48 62 71 61 48 48 60 78 94 101 103 103 102 103 101 92 88 94 99 98 97 96 94 96 98 99 101 102 102 103 103 98 87 77 79 91 98 98 100 100 99 100 98 93 93 98 99 100 101 99 97 94 83 63
33 37 47 58 60 58 57 62 72 80 83 83 82 74 66 70 77 72 57 43 43 56 64 54 43 49 64 80 93 95 92 93 95 94 90 86 89 96 98 95 92 89 89 93 97 98 100 102 103 103 104 104 99 85 76 84 95 97 99 101 99 99 101 99 97 98 99 98 100 101 99 100 102 95
38 42 51 61 63 59 56 57 64 73 78 79 80 76 67 67 73 70 55 39 37 49 57 50 42 49 64 79 89 89 84 86 90 88 84 85 93 100 100 96 94 91 90 92 94 95 98 100 101 103 104 104 105 97 81 80 92 97 97 101 101 99 100 101 97 97 100 99 99 100 100 99 99 102
49 49 56 63 64 60 56 56 58 65 71 75 77 76 68 65 70 69 54 36 32 44 53 48 41 48 61 72 80 81 79 82 85 81 81 88 95 98 98 96 94 93 93 95 96 97 100 101 100 102 103 101 104 103 89 81 88 95 95 98 101 99 99 100 97 96 98 99 95 95 99 100 99 101
60 59 60 65 66 62 58 56 57 60 66 70 74 75 69 65 69 68 53 33 27 39 51 48 41 45 54 62 68 71 71 75 78 79 84 93 95 92 92 95 98 99 99 100 100 99 100 101 100 100 101 99 100 103 95 83 82 87 90 93 99 100 99 99 99 97 97 95 89 86 88 92 97 99
70 67 65 66 68 67 63 58 56 58 62 66 70 73 70 65 68 68 54 33 24 34 47 48 41 42 49 54 59 63 65 69 77 84 91 95 93 91 94 99 103 103 102 101 101 100 100 100 100 100 100 100 100 102 97 86 80 82 84 86 92 98 100 100 99 100 99 97 95 92 89 89 93 98
77 73 69 67 69 71 67 61 57 57 60 63 68 74 72 65 67 68 55 34 23 29 42 47 41 39 45 50 54 58 64 70 78 85 90 92 91 92 100 105 104 102 101 101 101 100 100 100 101 100 100 100 101 103 101 90 79 78 82 83 83 85 89 94 97 99 101 100 100 100 100 97 97 98
84 80 73 70 71 73 72 67 60 57 60 62 68 76 75 66 65 67 56 36 23 24 35 46 44 38 41 48 51 53 59 66 71 76 82 89 92 94 100 105 103 100 100 101 100 100 101 102 102 101 101 100 101 103 102 94 81 74 75 79 80 78 76 79 84 90 95 99 100 101 102 103 102 102
91 88 82 76 75 76 78 77 69 61 60 62 67 77 77 66 62 67 59 39 24 20 26 40 46 41 37 43 49 51 53 57 62 68 75 83 88 91 97 103 105 104 103 102 101 99 100 101 102 101 100 100 101 100 100 98 93 85 78 76 77 76 72 69 69 72 76 83 90 93 94 92 91 92
Wind_Speed
28 33 40 47 56 67 77 85 92 100 108 111 110 107 105 104 101 100 100 99 99 100 100 98 98 99 100 99 99 98 97 95 93 91 91 91 92 92 92 92 91 90 88 87 86 85 84 82 81 80 79 78 77 76 75 74 74 74 71 69 68 68 67 66 65 66 66 66 66 69 71 71 70 71
24 26 31 38 46 54 64 75 83 90 98 107 112 111 108 107 105 102 101 100 98 99 101 101 100 99 99 100 99 99 99 97 95 94 92 92 92 93 93 93 92 91 90 89 88 87 86 85 83 82 81 80 79 78 76 75 75 75 74 72 70 69 68 67 66 65 65 65 64 66 69 70 69 69
22 22 24 29 36 44 52 62 73 82 88 95 105 111 112 109 108 106 104 102 100 99 99 101 101 101 99 99 99 100 99 99 98 97 95 93 93 93 93 94 93 93 92 91 90 88 87 87 86 85 83 82 80 79 78 77 76 75 75 75 74 72 69 68 67 67 66 65 64 64 66 67 67 67
20 19 20 22 27 35 43 51 61 72 80 86 93 103 111 112 110 109 107 104 102 101 100 100 101 101 101 100 99 99 100 100 100 100 98 96 94 94 94 94 94 94 93 93 92 91 90 89 88 87 86 85 83 82 80 79 78 77 76 76 76 74 72 70 68 68 67 66 64 64 65 65 65 64
18 18 18 19 21 26 33 41 50 60 70 79 84 90 100 109 112 111 110 107 105 104 103 101 100 101 101 101 100 100 100 101 101 101 101 99 97 95 95 95 95 95 95 94 94 93 92 91 90 89 88 87 86 85 83 82 80 79 78 77 77 76 75 73 71 70 68 66 65 64 65 65 65 63
18 17 17 17 18 19 23 30 39 49 58 69 77 82 88 98 108 113 112 110 108 106 105 103 102 101 101 102 102 102 101 101 101 102 102 101 100 98 97 96 96 96 96 96 96 96 95 94 92 91 90 90 88 87 86 85 84 82 81 79 78 77 76 75 74 73 70 68 66 65 65 65 64 62
17 17 17 17 17 16 16 19 27 37 47 57 67 75 81 86 95 106 112 113 111 109 107 105 104 103 102 102 103 103 103 102 102 102 102 102 102 100 100 99 98 97 98 98 97 97 97 97 96 94 93 92 91 90 89 88 86 85 84 82 81 79 78 77 76 76 74 72 71 69 68 65 63 62
16 16 16 16 16 14 14 15 18 25 34 44 54 64 73 79 84 92 103 111 114 113 110 108 106 105 104 103 103 104 105 104 103 103 103 104 103 102 102 101 100 99 99 99 99 99 99 99 98 98 96 95 94 93 92 90 89 88 86 85 84 83 81 80 79 78 77 76 74 73 72 69 65 63
16 15 15 15 15 14 13 14 14 16 21 30 41 51 62 71 78 83 90 99 109 114 114 111 109 108 106 105 104 104 105 106 105 105 104 105 105 105 104 103 103 102 102 101 101 101 101 100 100 100 99 98 97 95 94 93 92 91 89 88 87 86 85 84 83 82 81 80 78 77 76 74 70 67
16 16 15 14 14 13 13 13 13 13 14 17 25 36 47 58 68 76 82 87 96 105 112 114 113 110 108 106 105 105 106 107 107 107 106 106 106 106 106 105 104 104 104 104 104 104 103 102 102 102 101 101 100 99 97 96 95 94 92 91 90 89 88 87 87 86 84 83 82 80 79 78 75 72
15 16 16 15 14 13 12 12 12 11 12 12 15 22 32 43 54 65 74 80 85 92 101 109 114 114 111 109 107 107 107 108 108 108 107 106 106 107 107 107 106 106 106 106 106 106 106 105 104 103 103 102 102 101 100 99 98 97 96 94 93 92 91 90 89 89 88 86 85 83 81 80 78 76
15 15 16 15 15 14 13 11 11 10 11 11 12 14 19 27 38 49 60 70 78 83 89 96 105 112 114 113 111 109 109 109 108 108 108 108 108 108 108 108 107 107 107 107 107 107 108 108 107 106 105 104 103 103 103 102 101 100 99 97 96 95 94 93 92 91 90 89 88 87 85 83 81 79
14 14 15 15 14 14 13 12 11 10 10 10 11 12 12 16 23 32 44 55 66 74 81 86 92 100 108 113 115 114 112 111 109 109 110 110 110 109 109 108 108 108 108 108 108 108 108 109 109 109 108 106 105 105 104 104 103 102 101 101 100 98 97 96 94 93 92 91 90 89 88 87 85 82
12 13 13 14 14 13 12 12 11 11 10 9 10 10 10 12 14 19 28 38 50 60 70 77 83 89 95 104 111 115 116 114 112 111 111 110 110 110 110 110 109 109 109 109 109 109 109 109 110 110 110 109 108 107 106 105 105 104 103 103 103 102 101 99 97 96 95 94 92 91 90 90 89 87
11 12 12 12 12 12 12 11 11 11 10 9 8 8 9 10 11 13 18 24 33 43 54 65 74 80 85 92 100 108 114 116 115 114 113 112 111 111 111 111 110 111 111 111 111 110 110 110 111 111 111 110 109 109 108 107 107 106 106 106 105 104 103 102 101 99 98 96 95 94 92 91 91 90
10 10 10 10 10 10 10 10 10 10 10 9 8 7 7 8 9 10 13 16 22 29 38 48 58 67 75 82 88 95 103 110 115 116 116 115 114 113 113 112 111 112 113 114 113 112 110 111 111 110 110 110 110 110 110 110 109 109 109 108 107 107 106 105 104 102 101 99 98 96 95 94 92 91
10 9 8 8 8 9 9 9 9 9 9 9 9 8 7 8 8 8 8 10 14 18 24 31 39 49 60 69 76 83 90 98 105 111 115 116 116 116 115 114 113 113 115 116 115 113 111 111 111 110 109 109 110 111 111 111 111 111 111 111 110 109 108 107 106 104 103 102 101 99 98 96 95 94
10 10 9 9 9 10 10 10 9 9 9 8 8 8 8 8 8 7 7 7 7 10 15 20 27 35 43 52 62 71 78 85 92 99 106 112 116 118 118 117 116 115 116 116 116 114 112 112 112 111 109 109 110 111 111 112 112 113 113 112 112 111 111 109 108 107 106 104 103 102 101 100 98 97
12 12 12 12 12 12 12 12 11 11 10 9 8 8 8 8 8 8 8 7 6 6 9 13 18 23 30 38 47 55 64 72 79 86 93 101 108 114 118 119 119 119 118 118 117 115 113 113 113 112 110 110 111 111 111 112 113 114 113 113 113 113 112 112 111 110 109 107 106 105 103 102 101 100
14 15 15 15 15 15 15 14 13 13 12 11 10 9 9 8 9 9 9 8 8 8 9 10 11 12 17 25 32 40 48 56 64 72 79 86 94 101 108 114 118 120 120 120 119 117 115 115 115 114 113 113 113 113 112 112 113 113 114 114 114 114 113 113 113 112 111 110 109 107 106 104 103 102
17 17 18 18 18 18 16 15 14 14 14 13 12 12 11 11 11 11 10 9 9 9 10 12 12 10 11 13 17 24 32 40 48 56 63 70 78 86 93 101 108 114 118 120 121 120 118 118 118 117 116 115 115 115 114 113 113 113 113 114 114 115 115 114 114 113 113 112 111 110 109 107 106 104
18 18 19 19 19 18 16 15 14 14 14 14 13 13 13 13 14 14 13 12 11 11 11 13 14 14 13 12 13 15 19 26 34 40 46 53 62 70 77 83 91 99 106 112 117 119 120 121 121 120 120 119 118 117 116 115 115 115 114 114 114 114 114 114 114 114 114 114 113 112 111 110 109 108
17 18 18 19 19 17 16 15 14 13 13 14 13 13 14 15 16 15 13 13 14 14 14 15 16 16 16 15 15 15 16 18 22 26 32 40 47 53 60 67 74 81 88 95 103 109 114 119 121 123 123 121 120 120 119 118 118 118 117 117 116 115 114 113 113 114 114 114 114 114 113 112 111 110
16 16 17 18 19 17 15 13 13 12 12 13 13 13 14 16 17 14 13 14 15 16 16 17 18 18 18 18 17 17 18 19 19 20 24 30 35 40 46 52 58 64 70 77 84 91 99 106 112 117 121 122 122 122 122 122 121 121 120 120 118 117 116 115 113 112 112 113 113 114 114 114 113 113
15 15 16 16 18 17 15 13 11 11 11 12 13 13 14 16 16 15 14 15 16 17 18 19 20 20 21 21 20 19 20 21 22 22 22 24 27 31 35 40 45 50 54 60 67 73 81 87 94 100 108 114 117 120 122 123 124 124 124 123 122 120 119 118 116 114 113 112 111 112 113 114 114 115
16 16 16 16 17 17 16 14 12 11 10 10 12 14 15 16 16 16 15 16 16 17 19 20 21 22 23 23 23 23 22 23 24 25 25 24 24 26 28 31 36 39 43 47 52 57 62 68 74 80 88 96 103 108 112 116 121 124 126 126 125 124 123 121 119 117 115 114 112 111 111 112 113 114
16 16 17 17 17 18 17 15 13 12 11 10 11 13 14 16 17 17 17 17 17 18 19 21 22 23 24 24 25 25 25 25 26 27 27 27 26 25 25 27 29 33 37 41 43 45 48 52 56 62 68 76 83 90 95 100 107 114 119 122 125 126 126 125 123 121 119 117 115 114 113 113 112 113
16 16 17 17 17 18 18 17 15 14 13 12 12 12 14 15 17 18 18 18 19 19 20 21 22 24 25 26 26 27 28 28 29 29 29 29 28 27 26 27 28 30 35 38 39 39 39 41 43 47 52 57 64 70 77 82 89 96 103 110 116 121 124 126 126 125 123 122 119 118 117 116 115 114
17 17 17 16 16 17 19 19 17 16 15 14 14 14 15 16 17 18 18 19 20 21 21 23 24 25 27 28 28 29 30 31 31 30 29 29 29 29 28 28 28 29 32 35 37 37 36 36 36 37 40 44 48 52 58 63 69 75 83 90 98 106 114 119 123 125 126 125 124 123 121 119 118 116
20 19 18 17 17 17 19 19 18 17 17 17 16 16 17 17 18 19 19 19 20 21 22 24 25 26 28 31 32 32 32 32 31 31 30 30 29 30 30 30 29 30 31 32 35 36 37 37 37 36 36 37 39 41 43 47 51 56 63 70 76 85 94 103 111 116 120 122 124 125 124 123 122 120
21 21 20 19 19 19 19 19 19 18 18 18 18 18 18 19 19 20 21 21 21 22 23 25 26 27 30 33 35 36 35 33 32 31 31 30 29 29 31 31 30 30 31 32 33 34 36 38 39 39 38 37 38 38 37 37 38 40 44 51 57 63 71 81 91 99 105 110 115 118 121 122 122 122
21 22 22 22 21 21 21 21 20 19 18 18 19 19 19 20 21 22 22 22 22 23 24 26 28 30 31 33 34 37 38 36 34 33 32 30 29 29 30 31 31 31 31 32 33 34 37 38 40 41 41 40 38 38 36 34 33 31 31 35 41 45 50 58 67 76 85 93 99 104 109 113 116 118
21 22 23 23 23 23 23 22 21 20 19 19 19 19 20 20 21 22 23 23 23 23 25 27 30 31 31 29 29 32 35 36 35 34 32 31 30 29 29 30 31 31 32 32 33 36 38 40 40 42 44 43 41 39 37 34 32 29 26 26 29 33 36 40 47 54 62 71 79 85 91 96 102 107
22 22 22 23 23 24 24 23 22 21 20 20 20 20 20 20 21 22 23 23 23 23 25 28 31 31 29 26 25 27 30 33 34 33 32 31 30 28 27 28 29 30 31 33 34 37 39 40 40 40 43 46 45 41 39 36 33 30 27 24 24 26 28 29 33 38 43 50 58 66 72 78 84 90
24 23 23 23 24 24 24 24 23 22 21 20 20 21 21 21 21 22 23 23 22 22 25 28 30 29 27 24 22 23 25 28 31 32 32 31 28 26 26 26 27 28 29 30 33 35 37 38 38 38 40 44 46 45 41 38 35 33 29 26 24 24 24 24 27 31 34 37 42 48 55 61 67 73
26 25 24 23 24 24 24 24 23 23 22 21 20 20 21 21 21 21 22 22 21 21 24 27 29 27 23 19 18 19 21 25 29 31 31 29 27 25 24 24 25 26 27 28 30 32 33 35 36 36 37 40 43 45 44 41 38 35 32 28 26 25 24 23 24 27 29 31 34 37 40 44 50 57
27 26 25 24 24 24 24 24 24 23 23 22 21 20 20 20 20 21 21 21 20 20 23 26 27 23 17 14 14 16 20 24 27 29 29 27 25 23 22 23 23 24 25 25 26 28 29 30 32 33 35 36 38 43 45 43 40 37 34 31 28 27 26 25 24 24 26 27 28 30 31 32 36 42
28 27 25 24 24 24 24 24 24 24 24 23 22 21 20 20 20 20 20 20 19 18 21 24 24 19 13 11 12 14 18 22 25 27 27 24 22 21 20 21 21 22 22 22 23 24 25 26 27 29 31 33 34 39 44 45 43 40 37 33 31 29 28 28 26 25 24 25 25 25 26 26 27 32
28 27 26 24 24 24 24 24 25 25 25 25 23 22 21 20 20 19 19 18 17 17 18 21 21 16 10 8 9 12 17 21 24 25 23 21 20 19 19 19 20 20 20 20 21 21 21 22 23 25 27 29 31 35 42 47 46 43 39 36 33 32 30 29 28 27 26 26 26 25 25 25 24 26
28 27 26 24 23 23 23 23 24 25 25 25 24 23 21 20 19 18 17 17 16 15 15 17 17 13 7 5 8 12 16 20 22 22 20 19 18 18 18 18 17 18 18 18 18 18 18 19 20 21 23 25 27 31 39 46 47 44 41 37 35 34 33 31 29 29 28 28 27 26 27 27 27 26
27 27 26 24 23 22 22 22 23 24 25 25 25 23 21 20 19 18 16 16 14 12 12 14 13 9 4 4 8 12 16 19 20 19 18 17 17 16 15 15 15 15 16 16 16 16 16 17 18 18 19 21 23 26 34 43 46 44 42 39 36 35 35 34 32 32 31 29 28 27 27 27 28 28
27 27 26 25 23 22 21 22 22 23 24 24 24 23 21 20 19 18 16 14 13 11 10 10 9 5 3 7 11 14 17 18 19 19 18 17 15 14 13 12 13 13 14 14 14 14 15 15 15 16 16 18 19 22 28 37 44 44 42 41 39 38 37 36 35 35 34 33 31 30 29 29 30 31
26 26 26 25 24 22 21 21 21 22 22 22 23 22 21 20 19 18 15 14 12 9 8 7 6 4 5 10 14 16 18 19 19 19 18 17 15 14 12 12 12 11 11 12 12 12 13 13 13 13 14 14 15 18 23 32 41 44 43 41 41 41 40 39 38 37 36 35 35 34 33 33 33 33
25 26 25 25 24 22 21 20 20 20 21 21 21 22 21 20 19 17 15 14 12 9 7 6 5 4 7 12 15 18 20 21 21 20 19 18 17 16 14 14 13 13 12 12 12 11 12 11 11 12 12 13 14 15 19 25 34 40 43 42 42 41 41 41 41 40 40 39 39 38 37 37 36 36
24 24 24 24 24 23 21 20 20 20 20 20 21 21 21 20 19 17 16 14 12 10 8 7 6 5 7 12 16 18 20 21 21 21 20 20 19 19 18 17 16 16 15 15 14 13 13 12 11 11 11 12 13 15 17 20 24 31 36 40 42 42 42 42 43 43 43 43 43 42 42 41 41 41
Wind_Direction
276 265 256 250 245 241 237 234 233 232 232 231 231 230 230 229 228 228 228 228 229 228 227 226 227 228 228 228 227 227 227 226 226 225 224 224 224 224 224 224 223 223 223 223 223 223 223 223 223 223 223 223 222 222 222 222 223 224 224 224 224 224 224 224 224 226 227 228 229 228 229 231 232 232
286 276 264 255 248 244 240 237 234 232 231 231 231 231 230 230 229 228 228 228 228 230 229 228 227 227 228 228 228 228 227 227 227 226 225 225 224 225 225 224 224 224 224 224 224 224 224 224 223 224 224 224 223 222 222 222 222 223 223 223 223 223 223 223 223 224 225 227 228 229 229 231 231 231
291 286 275 263 253 247 242 239 236 233 232 231 231 231 231 230 230 229 228 227 228 229 231 230 229 228 228 228 228 228 228 228 228 227 226 225 225 225 225 225 225 225 225 225 224 224 224 224 224 224 224 224 224 224 223 223 222 222 223 223 223 223 223 223 223 223 224 225 226 227 228 229 231 231
291 289 283 274 261 252 245 241 237 235 233 232 231 231 231 231 231 230 230 228 228 229 230 231 231 230 229 228 228 228 228 228 228 228 227 226 225 225 225 225 225 225 225 225 225 225 225 225 225 225 225 225 225 225 225 224 223 223 223 223 223 223 223 223 223 223 224 225 224 225 227 228 230 231
293 288 286 281 272 260 250 244 240 237 234 233 232 231 231 231 231 231 231 230 229 229 230 231 232 233 232 230 228 228 228 228 228 228 228 227 226 225 225 226 226 226 226 226 226 226 225 225 225 225 226 226 225 225 225 225 225 224 224 224 224 224 224 223 223 224 225 226 225 225 226 227 229 230
296 290 286 284 283 275 262 251 244 239 236 234 233 232 231 231 231 231 231 231 230 230 231 231 231 233 234 233 231 229 229 229 229 229 229 228 227 226 225 225 226 226 226 226 226 226 226 226 226 225 226 226 226 226 226 226 226 226 225 225 225 225 225 224 224 224 224 224 224 224 225 227 227 228
299 295 290 288 289 288 278 262 250 243 239 236 234 233 232 231 231 231 231 231 231 231 231 231 232 232 233 234 235 233 231 230 230 230 229 229 229 228 227 225 225 226 227 227 227 227 227 227 227 226 226 226 226 227 227 226 226 226 226 226 226 225 225 225 225 225 224 223 223 223 225 227 229 228
302 299 296 292 290 289 284 275 263 251 243 239 236 234 233 232 231 231 231 231 231 231 231 232 232 233 233 234 235 236 235 232 231 230 230 230 230 229 228 227 226 225 226 227 227 228 228 228 227 227 227 227 226 226 227 227 227 227 227 227 227 226 226 225 225 225 226 225 224 224 226 228 230 230
303 301 300 297 293 289 285 281 278 268 254 244 239 236 234 233 232 231 231 231 231 231 232 232 233 233 233 234 234 236 237 236 234 232 231 231 231 230 230 229 228 226 226 226 227 228 228 228 228 228 228 228 227 227 227 227 227 227 227 227 227 227 227 226 225 226 226 227 227 228 228 229 229 229
303 303 302 300 297 293 287 284 284 282 273 259 246 239 235 234 233 232 232 231 231 231 231 232 233 233 234 234 234 235 237 237 237 236 234 232 232 232 231 230 230 228 227 227 227 227 228 229 229 229 229 229 229 228 228 228 227 227 227 228 228 228 228 228 227 227 227 227 228 229 229 229 229 229
303 303 304 304 303 301 296 289 286 283 281 275 261 248 240 235 233 233 232 232 232 231 231 231 232 233 233 234 234 235 235 236 237 238 237 235 234 233 233 232 231 230 229 228 228 227 228 228 229 230 230 230 230 230 230 229 229 228 228 228 228 228 229 229 229 228 228 228 228 228 229 229 229 230
306 307 308 309 310 309 306 301 292 283 280 278 273 263 251 242 236 233 232 232 232 232 231 231 231 232 232 233 234 234 235 236 236 237 238 238 236 235 234 233 233 232 232 231 230 229 229 229 229 230 231 231 232 232 231 231 230 230 229 229 229 229 229 229 229 230 230 229 229 228 228 228 229 230
311 313 313 314 315 315 315 312 305 293 284 280 279 276 266 252 242 236 233 232 232 232 232 231 231 231 231 232 233 234 235 235 235 236 237 238 238 238 237 235 235 234 234 233 232 231 231 230 230 230 230 231 232 232 233 233 232 232 231 230 230 229 229 229 230 230 230 230 230 230 229 229 229 229
312 315 317 318 319 321 322 321 318 310 300 291 289 288 278 263 250 242 237 234 232 231 231 231 231 231 230 230 231 232 234 235 235 236 237 237 238 239 239 238 236 236 235 235 234 233 233 232 231 231 230 230 231 232 233 233 234 234 233 232 231 231 230 230 230 230 230 231 231 231 231 230 230 229
314 314 315 317 321 324 327 327 326 324 320 314 305 297 288 278 262 248 241 237 234 232 231 231 231 231 231 231 231 231 232 233 234 235 237 237 237 238 239 239 239 238 237 237 236 235 234 234 233 232 232 231 231 232 232 233 234 234 234 234 234 233 232 231 231 231 231 231 231 231 231 231 232 231
327 324 321 322 325 327 328 330 332 331 329 328 324 309 295 289 280 265 250 241 235 233 231 231 231 231 232 232 232 231 231 232 233 234 235 236 237 238 239 239 239 240 240 239 237 236 236 236 235 235 234 234 233 233 233 233 234 234 234 235 235 235 234 233 232 231 231 231 232 232 232 232 232 232
337 338 337 336 337 338 337 337 338 337 335 333 331 324 311 301 295 289 274 254 241 234 232 231 231 231 231 232 232 232 232 232 232 232 233 235 236 237 238 239 239 240 241 241 240 238 237 238 238 237 236 236 235 235 234 234 234 234 234 235 235 235 236 236 235 234 233 232 232 232 232 232 232 232
326 326 327 329 329 330 331 330 330 331 333 333 331 328 324 318 310 302 293 282 260 241 235 234 233 232 232 232 232 232 233 233 233 233 233 233 234 235 236 238 238 239 240 241 241 240 239 239 239 239 238 237 237 237 236 236 235 235 235 235 235 236 236 236 236 236 235 234 233 233 232 232 233 233
310 310 310 311 313 314 315 315 315 314 313 316 317 316 316 316 312 302 295 293 287 264 249 245 242 238 236 234 233 233 233 233 234 234 233 233 233 233 234 236 237 238 239 241 242 242 241 241 241 240 239 239 239 238 238 237 237 236 236 236 236 236 236 236 236 236 236 236 236 235 234 233 233 233
304 302 301 301 302 303 305 305 304 302 301 300 298 297 298 297 294 292 293 295 291 279 269 267 264 254 246 243 239 236 235 234 234 234 234 234 234 234 234 235 235 236 238 239 241 241 241 242 242 242 241 240 240 239 239 238 238 238 237 237 237 236 237 237 237 237 237 237 237 237 236 235 235 234
301 300 298 297 297 298 299 300 298 296 294 294 292 289 287 284 282 282 285 288 287 280 275 275 278 276 266 258 251 244 239 238 237 236 236 235 235 235 235 235 235 236 236 237 239 240 240 241 242 242 242 242 241 241 240 240 239 239 239 238 237 237 237 237 237 237 237 237 237 238 237 237 237 236
299 299 298 297 295 294 294 294 294 292 291 291 290 288 285 281 278 278 280 279 278 275 271 271 273 274 271 267 264 257 249 244 242 240 238 237 236 235 235 235 235 235 236 236 237 238 239 240 241 242 242 242 242 242 242 242 241 241 240 239 239 238 237 237 237 237 237 237 237 238 238 238 238 238
299 300 300 299 296 294 291 290 291 291 290 290 289 287 285 281 279 280 280 276 271 267 265 264 266 268 267 265 263 263 260 256 250 243 240 239 238 236 235 235 234 235 235 236 237 237 237 238 239 240 241 242 243 243 243 243 243 242 242 241 240 239 238 238 237 237 237 237 237 238 238 238 239 239
299 299 300 300 298 294 290 288 289 290 291 292 291 288 284 283 284 287 283 274 269 266 263 263 263 264 264 263 261 259 260 260 258 250 244 242 240 236 235 234 234 234 234 235 235 235 236 237 238 239 240 240 241 242 243 243 244 244 243 243 242 241 240 239 238 237 237 237 237 237 238 238 238 239
300 300 300 299 297 295 291 287 286 288 290 293 293 291 288 287 289 290 284 275 271 268 265 262 261 261 261 260 259 256 255 256 256 253 249 247 244 239 235 234 233 232 233 234 234 234 235 236 237 238 239 239 240 241 242 243 243 244 244 244 244 243 242 241 240 239 238 237 237 237 237 238 238 239
302 302 302 300 297 294 292 290 287 285 287 289 290 293 294 293 293 292 287 281 276 271 267 265 262 260 259 258 257 255 252 252 253 251 249 247 246 243 239 236 234 232 231 232 233 233 233 234 235 236 237 238 238 239 240 241 242 243 243 244 244 244 244 243 242 241 240 239 238 238 238 238 238 238
300 301 301 299 297 295 292 291 291 290 288 288 288 291 293 293 293 292 290 286 282 277 272 269 266 263 260 257 256 254 252 249 248 248 246 244 244 244 241 238 236 233 231 231 231 231 230 231 233 234 235 236 236 237 239 240 241 242 242 243 243 244 244 244 244 243 242 241 240 239 239 238 238 238
296 294 293 292 293 294 294 292 293 294 294 293 291 290 290 289 289 289 288 287 286 284 280 275 270 266 262 258 254 251 250 248 246 245 245 244 242 241 240 239 236 234 232 231 230 228 227 228 230 232 233 234 234 235 236 238 239 241 242 242 243 243 243 244 244 244 243 243 242 242 241 240 239 239
295 288 285 284 286 289 290 291 292 294 295 295 293 292 291 289 287 286 285 285 286 286 284 279 274 269 265 261 256 250 247 246 245 245 245 244 242 239 237 237 235 233 232 231 228 224 220 220 222 225 227 229 230 232 234 236 238 239 240 241 242 243 243 243 243 243 243 244 243 243 243 242 242 241
295 289 282 278 278 281 284 286 288 291 293 293 293 294 293 292 291 289 287 286 286 287 285 282 278 272 266 262 257 253 249 246 244 244 244 243 241 239 236 235 234 232 231 230 227 223 219 217 216 218 221 223 225 227 231 234 236 239 240 241 242 243 243 243 243 243 243 243 243 243 244 243 243 242
289 288 283 277 275 277 280 282 285 288 291 292 292 293 293 293 293 292 291 290 290 290 289 286 283 277 270 264 260 256 252 246 241 240 240 240 239 237 235 234 233 231 230 228 225 224 223 221 219 218 218 220 223 224 227 231 234 237 241 242 241 242 243 244 243 243 242 242 242 242 243 243 243 243
280 282 281 277 275 275 277 280 283 286 289 292 293 292 292 292 293 293 293 293 293 294 293 291 288 284 278 270 262 255 250 245 238 235 235 236 236 235 233 232 231 230 229 228 225 225 226 226 225 222 219 220 222 222 223 226 228 231 238 244 242 241 242 243 243 243 242 241 241 241 241 242 242 242
274 276 276 274 272 271 272 275 280 283 287 292 294 294 292 292 293 294 294 294 296 298 298 297 295 291 285 276 263 253 246 241 235 231 230 231 233 233 233 232 230 229 228 226 225 226 228 228 228 225 221 220 221 220 220 221 221 223 230 239 241 239 238 240 241 241 241 240 240 239 239 240 240 240
274 274 274 272 268 266 266 270 275 280 285 291 295 296 295 294 294 294 294 295 297 300 301 301 300 297 290 279 265 252 243 236 230 225 224 227 230 232 233 233 231 230 229 227 226 227 230 231 231 230 225 222 221 219 218 218 217 219 222 228 234 236 234 234 235 235 236 237 236 236 236 236 236 237
273 274 273 272 268 264 263 265 271 277 283 288 294 297 297 295 294 294 294 295 298 302 304 305 304 301 291 278 263 250 238 228 222 218 218 222 226 230 232 232 231 230 230 230 230 231 233 235 235 234 231 228 224 220 219 217 216 219 220 220 226 233 234 230 227 227 228 231 232 232 233 233 233 233
271 272 273 272 269 265 262 263 266 272 278 285 291 296 296 294 293 293 294 297 300 306 308 308 308 304 291 272 255 240 227 217 212 210 211 216 221 226 230 231 231 230 231 232 233 235 236 238 239 238 236 234 228 223 219 217 216 218 219 217 219 228 234 232 226 222 222 225 227 228 230 232 232 232
268 270 272 272 271 268 264 263 264 269 275 281 288 293 295 293 291 292 295 298 302 308 310 312 312 307 289 262 242 229 216 208 204 203 205 211 216 222 228 229 229 230 232 234 236 239 239 240 241 239 238 236 232 225 220 217 216 217 218 217 217 221 227 230 229 224 221 222 223 224 226 228 231 231
264 267 269 270 270 268 265 263 264 267 272 277 284 290 293 293 292 292 295 299 303 309 313 316 317 311 287 251 232 220 208 200 197 198 201 206 213 220 227 230 230 232 234 236 238 241 242 242 241 241 239 237 234 227 221 218 217 218 218 217 216 217 220 222 225 225 223 222 223 225 225 225 227 229
260 262 265 266 267 266 264 263 262 264 268 273 279 286 291 293 291 292 295 299 304 310 316 320 321 314 288 244 223 210 199 193 192 194 197 202 211 219 225 228 230 232 235 237 239 242 244 243 241 241 239 237 234 228 221 217 217 218 219 218 216 216 216 217 218 221 223 223 224 225 225 225 226 228
257 258 260 263 264 263 262 261 260 262 264 268 273 281 288 291 291 290 293 298 303 311 318 323 325 318 292 235 205 195 189 187 188 190 194 201 209 217 222 226 229 231 234 236 238 240 242 242 240 239 238 238 236 230 222 217 216 217 219 220 218 216 216 216 216 217 219 223 225 225 224 224 224 225
254 256 257 259 261 262 261 260 259 260 262 264 269 275 283 289 289 287 289 295 300 307 317 323 325 320 289 197 180 180 181 181 183 187 194 203 210 215 219 223 227 229 231 233 235 236 238 239 238 238 238 237 235 230 222 217 216 217 219 221 222 220 219 218 217 216 217 220 223 225 225 224 223 224
253 253 254 256 258 259 259 258 258 258 260 261 265 270 278 285 286 284 284 289 294 299 310 319 322 312 224 173 168 173 177 179 183 190 197 204 208 211 213 217 220 223 227 230 232 234 236 236 236 237 237 235 233 228 221 216 215 217 220 223 225 225 224 222 221 219 217 217 218 220 221 222 223 224
252 252 252 252 254 256 256 255 255 256 258 259 261 265 272 279 282 279 278 282 285 286 293 306 311 279 204 182 175 176 180 183 188 195 200 204 206 206 207 210 213 217 220 223 226 228 230 232 231 232 233 232 228 225 220 216 215 218 221 223 226 228 228 228 227 226 224 222 221 221 222 222 222 224
250 250 250 250 251 253 255 256 256 256 257 258 259 261 265 272 276 275 272 274 277 274 271 277 282 252 210 196 190 187 187 191 195 200 203 206 207 209 208 208 210 212 214 215 217 219 221 223 224 223 225 225 222 219 218 217 218 220 222 225 227 228 229 229 229 230 230 231 230 229 229 228 227 227
248 249 249 249 249 251 253 255 256 257 256 256 256 256 259 265 271 270 266 266 268 265 257 251 250 241 218 207 203 200 199 200 202 204 207 210 212 213 214 213 214 215 216 215 216 217 218 219 219 218 218 217 216 215 215 216 218 220 223 226 229 230 231 231 231 231 231 233 234 233 232 232 231 231